FW5980 Weather Reports


time (UTC)temp
F
wind
direction
speed
knots
gust
knots
rain 1hr
in
rain 24hr
in
rain mn
in
humidity
%
barometer
mb
20260504221727 76 14 1.7 10.4 0.00 0.00 0.00 26 1002.4
20260504221225 76 333 1.7 12.2 0.00 0.00 0.00 26 1002.2
20260504220723 77 14 0.9 12.2 0.00 0.00 0.00 26 1002.3
20260504220221 77 15 0.9 8.7 0.00 0.00 0.00 26 1002.1
20260504215720 78 350 0.9 9.6 0.00 0.00 0.00 26 1002.2
20260504215221 78 68 0.9 15.6 0.00 0.00 0.00 25 1002.1
20260504214721 79 1 0.9 15.6 0.00 0.00 0.00 26 1002.0
20260504214221 79 349 1.7 11.3 0.00 0.00 0.00 26 1001.8
20260504213718 79 358 1.7 11.3 0.00 0.00 0.00 27 1001.7
20260504213218 79 341 1.7 11.3 0.00 0.00 0.00 27 1001.7
20260504212719 79 30 1.7 8.7 0.00 0.00 0.00 28 1001.7
20260504212219 79 8 2.6 10.4 0.00 0.00 0.00 27 1001.7
20260504211718 80 328 0.9 10.4 0.00 0.00 0.00 27 1001.6
20260504211219 80 23 0.9 9.6 0.00 0.00 0.00 29 1001.6
20260504210720 79 303 0.9 10.4 0.00 0.00 0.00 28 1001.5
20260504210218 80 351 0.9 10.4 0.00 0.00 0.00 28 1001.6
20260504205719 79 30 0.9 10.4 0.00 0.00 0.00 30 1001.5
20260504205219 79 319 1.7 10.4 0.00 0.00 0.00 29 1001.6
20260504204717 80 330 1.7 11.3 0.00 0.00 0.00 30 1001.5
20260504204217 80 4 1.7 11.3 0.00 0.00 0.00 30 1001.5
20260504203716 80 23 0.9 7.8 0.00 0.00 0.00 31 1001.5
20260504203216 80 335 1.7 9.6 0.00 0.00 0.00 30 1001.6
20260504202716 81 328 1.7 9.6 0.00 0.00 0.00 32 1001.6
20260504202216 80 24 1.7 8.7 0.00 0.00 0.00 29 1001.4
20260504201717 81 336 1.7 8.7 0.00 0.00 0.00 29 1001.4
20260504201217 81 319 0.9 10.4 0.00 0.00 0.00 28 1001.3
20260504200717 81 337 0.9 10.4 0.00 0.00 0.00 27 1001.3
20260504200217 82 324 0.9 7.0 0.00 0.00 0.00 28 1001.3
20260504195215 82 347 0.9 12.2 0.00 0.00 0.00 28 1001.2
20260504194715 82 9 0.9 10.4 0.00 0.00 0.00 26 1001.2
20260504194214 82 275 0.9 10.4 0.00 0.00 0.00 26 1001.2
20260504193714 82 333 0.9 9.6 0.00 0.00 0.00 26 1001.2
20260504193216 82 332 0.9 9.6 0.00 0.00 0.00 25 1001.2
20260504192713 83 333 1.7 10.4 0.00 0.00 0.00 25 1001.1
20260504191713 82 312 1.7 9.6 0.00 0.00 0.00 26 1001.1
20260504190710 83 316 0.9 12.2 0.00 0.00 0.00 27 1001.0
20260504190211 83 321 0.9 7.0 0.00 0.00 0.00 25 1001.1
20260504185710 82 300 0.9 7.0 0.00 0.00 0.00 25 1001.1
20260504185210 82 327 0.9 9.6 0.00 0.00 0.00 24 1001.0
20260504184710 82 287 0.9 9.6 0.00 0.00 0.00 25 1001.0
20260504184210 82 257 0.9 8.7 0.00 0.00 0.00 25 1001.1
20260504183711 82 291 0.9 8.7 0.00 0.00 0.00 27 1001.1
20260504183212 82 316 0.9 8.7 0.00 0.00 0.00 26 1000.9
20260504182212 82 301 0.9 12.2 0.00 0.00 0.00 25 1001.0
20260504181710 82 257 0.9 12.2 0.00 0.00 0.00 23 1001.0
20260504181209 82 325 0.9 9.6 0.00 0.00 0.00 24 1001.0
20260504180709 82 295 1.7 11.3 0.00 0.00 0.00 23 1001.0
20260504180208 82 285 1.7 11.3 0.00 0.00 0.00 24 1001.0
20260504175210 82 330 1.7 14.8 0.00 0.00 0.00 23 1001.0
20260504174209 81 275 0.9 11.3 0.00 0.00 0.00 26 1001.1
20260504173709 81 285 0.0 4.3 0.00 0.00 0.00 26 1001.2
20260504173209 81 266 0.0 4.3 0.00 0.00 0.00 26 1001.3
20260504172209 81 292 0.9 7.0 0.00 0.00 0.00 25 1001.3
20260504171710 80 286 0.9 7.0 0.00 0.00 0.00 27 1001.3
20260504171209 80 264 1.7 11.3 0.00 0.00 0.00 28 1001.5
20260504170710 80 318 1.7 11.3 0.00 0.00 0.00 27 1001.5
20260504170209 80 296 0.0 6.1 0.00 0.00 0.00 29 1001.6
20260504160202 74 261 0.0 1.7 0.00 0.00 0.00 38 1001.8
20260504150659 69 262 0.0 1.7 0.00 0.00 0.00 46 1002.2
20260504150159 68 284 0.0 0.0 0.00 0.00 0.00 46 1002.1
20260504140657 64 314 0.0 0.0 0.00 0.00 0.00 51 1002.3
20260504140157 64 333 0.0 0.0 0.00 0.00 0.00 50 1002.3
20260504130652 57 313 0.0 0.0 0.00 0.00 0.00 62 1002.3
20260504130154 56 286 0.0 0.0 0.00 0.00 0.00 64 1002.1
20260504120152 49 286 0.0 0.0 0.00 0.00 0.00 81 1001.5
20260504110652 47 286 0.0 0.0 0.00 0.00 0.00 80 1001.6
20260504110150 47 286 0.0 0.0 0.00 0.00 0.00 79 1001.6
20260504100150 49 286 0.0 0.0 0.00 0.00 0.00 77 1001.9
20260504081152 52 333 0.0 0.0 0.00 0.00 0.00 70 1003.1
20260504080650 52 333 0.0 0.0 0.00 0.00 0.00 69 1003.1
20260504080152 53 333 0.0 0.0 0.00 0.00 0.00 68 1003.1
20260504070151 53 333 0.0 0.0 0.00 0.00 0.00 65 1004.4
20260504050650 57 333 0.0 0.0 0.00 0.00 0.00 55 1005.7
20260504050151 58 333 0.0 0.0 0.00 0.00 0.00 56 1005.8
20260504045649 58 333 0.0 0.0 0.00 0.00 0.00 56 1005.8
20260504045149 58 55 0.0 0.0 0.00 0.00 0.00 55 1005.9
20260504044649 58 55 0.0 0.0 0.00 0.00 0.00 50 1006.0
20260504044150 58 55 0.0 0.0 0.00 0.00 0.00 51 1006.0
20260504043649 58 55 0.0 0.0 0.00 0.00 0.00 51 1006.2
20260504043150 59 55 0.0 0.0 0.00 0.00 0.00 49 1006.3
20260504042648 59 55 0.0 0.0 0.00 0.00 0.00 48 1006.3
20260504041647 60 55 0.0 0.0 0.00 0.00 0.00 47 1006.5
20260504041148 61 55 0.0 0.0 0.00 0.00 0.00 47 1006.6
20260504040647 61 55 0.0 0.0 0.00 0.00 0.00 47 1006.7
20260504040147 61 55 0.0 0.0 0.00 0.00 0.00 46 1006.8
20260504035647 61 55 0.0 0.0 0.00 0.00 0.00 47 1006.8
20260504035147 62 55 0.0 0.0 0.00 0.00 0.00 46 1006.8
20260504034647 62 55 0.0 0.0 0.00 0.00 0.00 45 1006.9
20260504034147 62 55 0.0 0.0 0.00 0.00 0.00 44 1006.9
20260504033645 62 55 0.0 0.0 0.00 0.00 0.00 43 1006.9
20260504033145 63 55 0.0 0.0 0.00 0.00 0.00 43 1007.0
20260504032646 63 55 0.0 0.0 0.00 0.00 0.00 43 1007.0
20260504032146 63 55 0.0 0.0 0.00 0.00 0.00 44 1006.9
20260504031646 63 55 0.0 0.0 0.00 0.00 0.00 43 1006.9
20260504031145 64 55 0.0 0.0 0.00 0.00 0.00 42 1006.9
20260504030645 64 55 0.0 0.0 0.00 0.00 0.00 43 1006.9
20260504030147 64 55 0.0 0.0 0.00 0.00 0.00 42 1006.9
20260504025146 65 46 0.0 0.0 0.00 0.00 0.00 41 1007.0
20260504024643 65 46 0.0 0.0 0.00 0.00 0.00 41 1007.0
20260504024143 65 46 0.0 0.0 0.00 0.00 0.00 41 1007.0
20260504023643 65 20 0.0 0.0 0.00 0.00 0.00 41 1007.0
20260504023142 65 20 0.0 0.0 0.00 0.00 0.00 40 1007.0
20260504022642 66 20 0.0 0.0 0.00 0.00 0.00 39 1007.1
20260504022143 66 20 0.0 0.0 0.00 0.00 0.00 40 1007.1
20260504021641 66 20 0.0 0.0 0.00 0.00 0.00 40 1007.2
20260504021143 66 20 0.0 0.0 0.00 0.00 0.00 40 1007.2
20260504020642 67 20 0.0 0.0 0.00 0.00 0.00 40 1007.2
20260504020140 67 20 0.0 0.0 0.00 0.00 0.00 38 1007.3
20260504015639 68 20 0.0 0.0 0.00 0.00 0.00 38 1007.3
20260504015139 68 20 0.0 0.0 0.00 0.00 0.00 38 1007.2
20260504014638 69 20 0.0 0.0 0.00 0.00 0.00 37 1007.2
20260504013640 70 20 0.0 0.0 0.00 0.00 0.00 34 1007.2
20260504013139 71 20 0.0 0.0 0.00 0.00 0.00 33 1007.2
20260504012639 71 20 0.0 0.0 0.00 0.00 0.00 33 1007.2
20260504011639 71 20 0.0 0.0 0.00 0.00 0.00 33 1007.2
20260504011139 71 20 0.0 0.0 0.00 0.00 0.00 32 1007.1
20260504010638 71 20 0.0 0.0 0.00 0.00 0.00 32 1007.2
20260504010139 71 20 0.0 0.0 0.00 0.00 0.00 32 1007.3
20260504005638 72 20 0.0 0.0 0.00 0.00 0.00 31 1007.3
20260504005138 73 20 0.0 0.0 0.00 0.00 0.00 31 1007.4
20260504004137 73 20 0.0 0.0 0.00 0.00 0.00 30 1007.5
20260504003138 74 20 0.0 0.0 0.00 0.00 0.00 29 1007.6
20260504002638 74 49 0.0 0.0 0.00 0.00 0.00 29 1007.7
20260504002138 74 49 0.0 0.0 0.00 0.00 0.00 29 1007.7
20260504001635 75 60 0.0 0.0 0.00 0.00 0.00 28 1007.7
20260504001135 75 68 0.0 0.0 0.00 0.00 0.00 28 1007.8
20260503235635 75 349 0.0 0.0 0.00 0.00 0.00 27 1008.0
20260503234635 76 28 0.0 0.0 0.00 0.00 0.00 28 1008.0
20260503233635 76 43 0.0 0.0 0.00 0.00 0.00 28 1008.1
20260503233135 76 336 0.0 0.0 0.00 0.00 0.00 27 1008.2
20260503232133 76 307 0.0 0.0 0.00 0.00 0.00 27 1008.2
20260503231633 76 266 0.0 0.0 0.00 0.00 0.00 27 1008.3
20260503231133 76 62 0.0 0.9 0.00 0.00 0.00 28 1008.2
20260503230633 76 32 0.0 0.9 0.00 0.00 0.00 27 1008.0
20260503225633 77 355 0.0 0.0 0.00 0.00 0.00 26 1008.3
20260503225134 78 281 0.0 0.0 0.00 0.00 0.00 28 1008.3
20260503224633 77 306 0.0 0.0 0.00 0.00 0.00 29 1008.2
20260503224133 76 230 0.0 0.0 0.00 0.00 0.00 27 1008.3
20260503223631 76 264 0.0 0.0 0.00 0.00 0.00 28 1008.4
20260503222631 76 324 0.0 0.0 0.00 0.00 0.00 27 1008.3